| time (UTC) | temp F | wind direction | speed MPH | gust MPH | rain 1hr in | rain 24hr in | rain mn in | humidity % | barometer mb |
| 20260504050506 | 42 | 276 | 0.0 | 1.0 | 0.00 | 0.00 | 0.00 | 73 | 1000.8 |
| 20260504045416 | 43 | 276 | 0.0 | 1.0 | 0.00 | 0.00 | 0.00 | 72 | 1001.0 |
| 20260504044316 | 43 | 0.0 | 0.0 | 0.00 | 0.00 | 0.00 | 71 | 1001.1 | |
| 20260504043217 | 43 | 0.0 | 0.0 | 0.00 | 0.00 | 0.00 | 71 | 1001.0 | |
| 20260504042215 | 44 | 276 | 1.0 | 1.0 | 0.00 | 0.00 | 0.00 | 71 | 1001.1 |
| 20260504041116 | 44 | 0.0 | 0.0 | 0.00 | 0.00 | 0.00 | 70 | 1000.9 | |
| 20260504040116 | 44 | 276 | 1.0 | 1.0 | 0.00 | 0.00 | 0.00 | 70 | 1001.1 |
| 20260504035116 | 44 | 0.0 | 0.0 | 0.00 | 0.00 | 0.00 | 70 | 1000.7 | |
| 20260504034014 | 44 | 0.0 | 0.0 | 0.00 | 0.00 | 0.00 | 70 | 1000.9 | |
| 20260504033014 | 44 | 276 | 0.0 | 1.0 | 0.00 | 0.00 | 0.00 | 70 | 1000.8 |
| 20260504032038 | 44 | 0.0 | 0.0 | 0.00 | 0.00 | 0.00 | 69 | 1000.8 | |
| 20260504030917 | 45 | 0.0 | 0.0 | 0.00 | 0.00 | 0.00 | 69 | 1000.8 | |
| 20260504025946 | 45 | 276 | 0.0 | 1.0 | 0.00 | 0.00 | 0.00 | 70 | 1000.8 |
| 20260504024946 | 45 | 0.0 | 0.0 | 0.00 | 0.00 | 0.00 | 70 | 1000.6 | |
| 20260504023946 | 45 | 276 | 0.0 | 1.0 | 0.00 | 0.00 | 0.00 | 70 | 1000.6 |
| 20260504023007 | 46 | 276 | 0.0 | 1.0 | 0.00 | 0.00 | 0.00 | 69 | 1000.8 |
| 20260504021916 | 46 | 276 | 1.0 | 1.0 | 0.00 | 0.00 | 0.00 | 68 | 1000.8 |
| 20260504020847 | 46 | 276 | 0.0 | 1.0 | 0.00 | 0.00 | 0.00 | 67 | 1000.7 |
| 20260504015817 | 46 | 0.0 | 0.0 | 0.00 | 0.00 | 0.00 | 68 | 1000.6 | |
| 20260504014835 | 47 | 0.0 | 0.0 | 0.00 | 0.00 | 0.00 | 66 | 1000.4 | |
| 20260504013745 | 48 | 276 | 0.0 | 1.0 | 0.00 | 0.00 | 0.00 | 63 | 1000.5 |
| 20260504012717 | 48 | 0.0 | 0.0 | 0.00 | 0.00 | 0.00 | 63 | 1000.4 | |
| 20260504011647 | 49 | 0.0 | 0.0 | 0.00 | 0.00 | 0.00 | 60 | 1000.2 | |
| 20260504010706 | 50 | 0.0 | 0.0 | 0.00 | 0.00 | 0.00 | 58 | 1000.3 | |
| 20260504005646 | 50 | 0.0 | 0.0 | 0.00 | 0.00 | 0.00 | 57 | 1000.0 | |
| 20260504004646 | 51 | 0.0 | 0.0 | 0.00 | 0.00 | 0.00 | 54 | 1000.0 | |
| 20260504003618 | 52 | 0.0 | 0.0 | 0.00 | 0.00 | 0.00 | 52 | 1000.2 | |
| 20260504002647 | 53 | 276 | 1.0 | 1.0 | 0.00 | 0.00 | 0.00 | 46 | 1000.2 |
| 20260504001646 | 54 | 276 | 1.0 | 1.0 | 0.00 | 0.00 | 0.00 | 46 | 999.9 |
| 20260504000708 | 55 | 0.0 | 0.0 | 0.00 | 0.00 | 0.00 | 43 | 999.8 | |
| 20260503235618 | 55 | 0.0 | 0.0 | 0.00 | 0.00 | 0.00 | 42 | 999.8 | |
| 20260503234647 | 56 | 275 | 0.0 | 1.0 | 0.00 | 0.00 | 0.00 | 39 | 999.8 |
| 20260503233708 | 56 | 0.0 | 0.0 | 0.00 | 0.00 | 0.00 | 40 | 999.6 | |
| 20260503232647 | 57 | 0.0 | 0.0 | 0.00 | 0.00 | 0.00 | 38 | 999.6 | |
| 20260503231647 | 57 | 342 | 3.0 | 5.0 | 0.00 | 0.00 | 0.00 | 38 | 999.6 |
| 20260503230616 | 58 | 307 | 0.0 | 1.0 | 0.00 | 0.00 | 0.00 | 38 | 999.6 |
| 20260503225726 | 58 | 332 | 1.0 | 2.0 | 0.00 | 0.00 | 0.00 | 37 | 999.6 |
| 20260503224646 | 59 | 321 | 0.0 | 1.0 | 0.00 | 0.00 | 0.00 | 36 | 999.3 |
| 20260503223645 | 59 | 318 | 2.0 | 2.0 | 0.00 | 0.00 | 0.00 | 34 | 999.3 |
| 20260503222645 | 59 | 8 | 5.0 | 6.0 | 0.00 | 0.00 | 0.00 | 36 | 999.6 |
| 20260503221616 | 59 | 177 | 3.0 | 3.0 | 0.00 | 0.00 | 0.00 | 32 | 999.5 |
| 20260503220645 | 59 | 354 | 2.0 | 2.0 | 0.00 | 0.00 | 0.00 | 33 | 999.6 |
| 20260503215614 | 60 | 312 | 1.0 | 1.0 | 0.00 | 0.00 | 0.00 | 35 | 999.7 |
| 20260503214657 | 60 | 321 | 0.0 | 1.0 | 0.00 | 0.00 | 0.00 | 33 | 999.8 |
| 20260503213645 | 60 | 340 | 1.0 | 1.0 | 0.00 | 0.00 | 0.00 | 33 | 999.8 |
| 20260503212646 | 60 | 358 | 2.0 | 2.0 | 0.00 | 0.00 | 0.00 | 33 | 999.5 |
| 20260503211616 | 59 | 241 | 2.0 | 3.0 | 0.00 | 0.00 | 0.00 | 36 | 999.6 |
| 20260503210647 | 59 | 261 | 2.0 | 5.0 | 0.00 | 0.00 | 0.00 | 37 | 999.8 |
| 20260503205706 | 60 | 301 | 2.0 | 3.0 | 0.00 | 0.00 | 0.00 | 38 | 999.8 |
| 20260503204618 | 60 | 272 | 3.0 | 5.0 | 0.00 | 0.00 | 0.00 | 33 | 999.7 |
| 20260503203646 | 60 | 315 | 2.0 | 3.0 | 0.00 | 0.00 | 0.00 | 35 | 999.9 |
| 20260503202647 | 60 | 335 | 2.0 | 2.0 | 0.00 | 0.00 | 0.00 | 37 | 999.8 |
| 20260503201637 | 60 | 306 | 1.0 | 1.0 | 0.00 | 0.00 | 0.00 | 36 | 999.8 |
| 20260503200646 | 60 | 326 | 1.0 | 2.0 | 0.00 | 0.00 | 0.00 | 36 | 1000.0 |
| 20260503195646 | 59 | 346 | 2.0 | 3.0 | 0.00 | 0.00 | 0.00 | 37 | 1000.1 |
| 20260503194618 | 61 | 244 | 2.0 | 3.0 | 0.00 | 0.00 | 0.00 | 37 | 1000.2 |
| 20260503193645 | 61 | 294 | 2.0 | 3.0 | 0.00 | 0.00 | 0.00 | 38 | 1000.6 |
| 20260503192616 | 61 | 241 | 4.0 | 5.0 | 0.00 | 0.00 | 0.00 | 37 | 1000.5 |
| 20260503191548 | 60 | 113 | 3.0 | 5.0 | 0.00 | 0.00 | 0.00 | 34 | 1000.7 |
| 20260503190547 | 60 | 345 | 2.0 | 2.0 | 0.00 | 0.00 | 0.00 | 33 | 1000.7 |
| 20260503185517 | 60 | 23 | 4.0 | 5.0 | 0.00 | 0.00 | 0.00 | 41 | 1000.8 |
| 20260503184605 | 60 | 298 | 2.0 | 2.0 | 0.00 | 0.00 | 0.00 | 43 | 1001.2 |
| 20260503183546 | 59 | 6 | 1.0 | 2.0 | 0.00 | 0.00 | 0.00 | 33 | 1001.1 |
| 20260503182516 | 60 | 327 | 1.0 | 2.0 | 0.00 | 0.00 | 0.00 | 34 | 1001.1 |
| 20260503181625 | 58 | 13 | 3.0 | 3.0 | 0.00 | 0.00 | 0.00 | 32 | 1001.3 |
| 20260503180546 | 59 | 340 | 1.0 | 1.0 | 0.00 | 0.00 | 0.00 | 36 | 1001.2 |
| 20260503175536 | 58 | 316 | 1.0 | 2.0 | 0.00 | 0.00 | 0.00 | 35 | 1001.7 |
| 20260503174535 | 58 | 248 | 3.0 | 5.0 | 0.00 | 0.00 | 0.00 | 41 | 1001.6 |
| 20260503173436 | 57 | 291 | 2.0 | 2.0 | 0.00 | 0.00 | 0.00 | 37 | 1001.6 |
| 20260503172415 | 57 | 238 | 6.0 | 8.0 | 0.00 | 0.00 | 0.00 | 42 | 1001.8 |
| 20260503171318 | 56 | 301 | 3.0 | 5.0 | 0.00 | 0.00 | 0.00 | 40 | 1002.1 |
| 20260503170336 | 56 | 265 | 2.0 | 2.0 | 0.00 | 0.00 | 0.00 | 44 | 1002.0 |
| 20260503131046 | 53 | 324 | 3.0 | 3.0 | 0.00 | 0.00 | 0.00 | 48 | 1003.5 |
| 20260503130107 | 52 | 309 | 1.0 | 2.0 | 0.00 | 0.00 | 0.00 | 52 | 1003.4 |
| 20260503100106 | 41 | 0.0 | 0.0 | 0.00 | 0.00 | 0.00 | 63 | 1001.8 | |
| 20260503090108 | 42 | 332 | 1.0 | 2.0 | 0.00 | 0.00 | 0.00 | 64 | 1001.5 |
| 20260503081045 | 42 | 0.0 | 0.0 | 0.00 | 0.00 | 0.00 | 64 | 1001.3 | |
| 20260503080107 | 42 | 352 | 0.0 | 1.0 | 0.00 | 0.00 | 0.00 | 64 | 1001.4 |
| 20260503072045 | 43 | 0.0 | 0.0 | 0.00 | 0.00 | 0.00 | 64 | 1000.8 | |
| 20260503071047 | 44 | 0.0 | 0.0 | 0.00 | 0.00 | 0.00 | 66 | 1000.6 |